This demonstration page uses our WeatherBlox Daily Observations layout. Learn more.

Left ArrowRight Arrow

Hourly Observations for June 18, 2020

Temp ( °F °C ) Dew Point ( °F °C ) Humidity (%) Winds ( mph kmh ) Pressure ( in mb ) Visibility ( mi km ) Precip ( " mm )
12:53 am 00:53 Clear 78 25.6 64 17.8 62 62 SSE 17 28 29.84 1011 10 16 0.00 0.00
1:53 am 01:53 Clear 77 25 64 17.8 64 64 SSE 17 28 29.84 1011 10 16 0.00 0.00
2:53 am 02:53 Clear 78 25.6 62 16.7 58 58 SSE 21 33 29.84 1010 10 16 0.00 0.00
3:53 am 03:53 Clear 76 24.4 63 17.2 64 64 SSE 14 22 29.83 1010 10 16 0.00 0.00
4:53 am 04:53 Clear 74 23.3 63 17.2 69 69 SSE 13 20 29.82 1010 10 16 0.00 0.00
5:53 am 05:53 Mostly Clear 74 23.3 64 17.8 71 71 SSE 14 22 29.83 1010 10 16 0.00 0.00
6:53 am 06:53 Mostly Sunny 73 22.8 64 17.8 74 74 SE 14 22 29.83 1010 10 16 0.00 0.00
7:53 am 07:53 Mostly Sunny 75 23.9 65 18.3 71 71 SSE 15 24 29.84 1011 10 16 0.00 0.00
8:53 am 08:53 Mostly Sunny 80 26.7 63 17.2 56 56 S 16 26 29.85 1011 10 16 0.00 0.00
9:53 am 09:53 Mostly Sunny 84 28.9 62 16.7 48 48 S 23 37 29.85 1011 10 16 0.00 0.00
10:53 am 10:53 Mostly Sunny 88 31.1 62 16.7 42 42 S 26 43 29.83 1010 10 16 0.00 0.00
11:53 am 11:53 Mostly Sunny 91 32.8 63 17.2 39 39 S 22 35 29.81 1009 10 16 0.00 0.00
12:53 pm 12:53 Partly Cloudy 93 33.9 62 16.7 36 36 S 22 35 29.80 1009 10 16 0.00 0.00
1:53 pm 13:53 Partly Cloudy 95 35 62 16.7 34 34 S 25 41 29.78 1009 10 16 0.00 0.00
2:53 pm 14:53 Partly Cloudy 96 35.6 62 16.7 32 32 S 22 35 29.78 1008 10 16 0.00 0.00
3:53 pm 15:53 Mostly Sunny 96 35.6 61 16.1 31 31 SSE 17 28 29.78 1009 10 16 0.00 0.00
4:53 pm 16:53 Mostly Sunny 95 35 60 15.6 31 31 SSE 22 35 29.78 1008 10 16 0.00 0.00
5:53 pm 17:53 Mostly Sunny 94 34.4 59 15 31 31 SSE 23 37 29.78 1008 10 16 0.00 0.00
6:53 pm 18:53 Mostly Sunny 92 33.3 59 15 33 33 S 20 31 29.78 1008 10 16 0.00 0.00
7:53 pm 19:53 Mostly Sunny 89 31.7 59 15 36 36 SSE 23 37 29.78 1008 10 16 0.00 0.00
8:53 pm 20:53 Mostly Sunny 86 30 58 14.4 39 39 SSE 20 31 29.78 1009 10 16 0.00 0.00
9:53 pm 21:53 Mostly Clear 84 28.9 56 13.3 38 38 SSE 17 28 29.81 1010 10 16 0.00 0.00
10:53 pm 22:53 Mostly Clear 82 27.8 56 13.3 41 41 SSE 14 22 29.84 1010 10 16 0.00 0.00
11:53 pm 23:53 Mostly Cloudy 81 27.2 57 13.9 44 44 SSE 16 26 29.84 1011 10 16 0.00 0.00

Powered by AerisWeather